Location: Archemont
(49.1579°N, 1.7598°E)
Time: 10:55:33
(UTC+00:00)

BlueWalker 3 - Visible Passes

Search period start: 09 November 2025 00:00
Search period end: 19 November 2025 00:00
Orbit: 456 x 464 km, 53.2° (Epoch: 08 November)

Date Brightness Start Highest point End Pass type
(mag) Time Alt. Az. Time Alt. Az. Time Alt. Az.
09 Nov 3.1 04:55:04 27° SSW 04:55:04 27° SSW 04:57:34 10° SSE visible
10 Nov 4.2 04:22:32 16° SSE 04:22:32 16° SSE 04:23:27 10° SSE visible
18 Nov 4.0 18:14:41 10° S 18:15:49 15° S 18:15:49 15° S visible
